アトラス彗星

C/2024 G3 ( ATLAS )

English version
Home page
Updated on May 21, 2024

---------------------------------------------------------------------

・ プロフィール

発見日 2024年4月5日
発見光度 19.2等
発見者 Asteroid Terrestrial-Impact Last Alert System (ATLAS) search program

・ 写真集

・ 軌道要素

Epoch 2024 Mar. 31.0 TT = JDT 2460400.5
T 2025 Jan. 13.42585 TT                                 Rudenko
q   0.0934413            (2000.0)            P               Q
z  -0.0001606      Peri.  108.12001     -0.04068164     +0.81564546
 +/-0.0039717      Node   220.31110     +0.14781316     +0.57615567
e   1.0000150      Incl.  116.86422     +0.98817826     -0.05260346
>From 121 observations 2024 Apr. 5-May 12, mean residual 0".5.

・ 星図

・ 光度変化

        m1 = 9.0 + 5 logΔ + 10.0 log r

---------------------------------------------------------------------

軌道要素はM.P.E.C. 2024-J304に掲載されたものです。
星図はステラナビゲータ Ver.11 (アストロアーツ) で作成したものです。
光度グラフはComet for Windowsで作成したものです。

---------------------------------------------------------------------

Copyright(C) Seiichi Yoshida (comet@aerith.net). All rights reserved.